Weather History for Corvallis, OR

Change the Weather History Date:

Thursday, September 6, 2012

  Actual Average Record
Temperature  
Mean Temperature 70 °F -  
Max Temperature 89 °F 79 °F 96 °F (2014)
Min Temperature 51 °F 50 °F 39 °F (2001)
Cooling Degree Days 5    
Growing Degree Days 20 (Base 50)    
Moisture  
Dew Point 53 °F    
Average Humidity 64    
Maximum Humidity 100    
Minimum Humidity 26    
Precipitation  
Precipitation 0.00 in - - ()
Sea Level Pressure  
Sea Level Pressure 29.96 in    
Wind  
Wind Speed 8 mph (WNW)    
Max Wind Speed 14 mph    
Max Gust Speed 16 mph    
Visibility 10 miles    
Events      
Averages and records for this station are not official NWS values.
T = Trace of Precipitation, MM = Missing Value Source: NWS Daily Summary

Daily Weather History Graph

Daily Weather History Graph

Search for Another Location

Airport:

Trip Planner

Search our weather history database for the weather conditions in past years. The results will help you decide how hot, cold, wet, or windy it might be!

Date:

Astronomy

Sep. 06, 2012 Rise Set
Actual Time 6:42 AM PDT 7:39 PM PDT
Civil Twilight 6:12 AM PDT 8:08 PM PDT
Nautical Twilight 5:37 AM PDT 8:44 PM PDT
Astronomical Twilight 5:00 AM PDT 9:21 PM PDT
Moon 10:37 PM PDT (9/6) 1:03 PM PDT (9/6)
Length of Visible Light 13h 56m
Length of Day
12h 57m
Waning Gibbous, 66% of the Moon is Illuminated
Sep 6
Waning Gibbous
Sep 8
Last Quarter
Sep 15
New
Sep 22
First Quarter
Sep 29
Full

Hourly Weather History & Observations

Time (PDT) Temp. Heat Index Dew Point Humidity Pressure Visibility Wind Dir Wind Speed Gust Speed Precip Events Conditions
12:15 AM 59.0 °F - 51.8 °F 77% 29.95 in 10.0 mi West 11.5 mph - N/A   Clear
12:35 AM 57.2 °F - 51.8 °F 82% 29.95 in 10.0 mi West 10.4 mph - N/A   Clear
12:55 AM 57.2 °F - 51.8 °F 82% 29.95 in 10.0 mi West 8.1 mph - N/A   Clear
1:15 AM 57.2 °F - 51.8 °F 82% 29.95 in 10.0 mi West 9.2 mph - N/A   Clear
1:35 AM 57.2 °F - 51.8 °F 82% 29.94 in 10.0 mi West 9.2 mph - N/A   Clear
1:55 AM 57.2 °F - 51.8 °F 82% 29.94 in 10.0 mi West 11.5 mph - N/A   Clear
2:15 AM 55.4 °F - 51.8 °F 88% 29.94 in 10.0 mi West 10.4 mph - N/A   Clear
2:35 AM 55.4 °F - 51.8 °F 88% 29.94 in 10.0 mi West 9.2 mph - N/A   Clear
2:55 AM 55.4 °F - 51.8 °F 88% 29.94 in 10.0 mi West 10.4 mph - N/A   Clear
3:15 AM 55.4 °F - 51.8 °F 88% 29.95 in 10.0 mi WNW 8.1 mph - N/A   Clear
3:35 AM 55.4 °F - 51.8 °F 88% 29.95 in 10.0 mi WNW 5.8 mph - N/A   Clear
3:55 AM 55.4 °F - 51.8 °F 88% 29.95 in 10.0 mi West 8.1 mph - N/A   Clear
4:15 AM 53.6 °F - 51.8 °F 94% 29.95 in 10.0 mi West 6.9 mph - N/A   Clear
4:35 AM 53.6 °F - 51.8 °F 94% 29.95 in 10.0 mi West 9.2 mph - N/A   Clear
4:55 AM 53.6 °F - 51.8 °F 94% 29.95 in 10.0 mi West 6.9 mph - N/A   Clear
5:15 AM 53.6 °F - 51.8 °F 94% 29.95 in 10.0 mi West 9.2 mph - N/A   Clear
5:35 AM 53.6 °F - 51.8 °F 94% 29.96 in 10.0 mi WNW 9.2 mph - N/A   Clear
5:55 AM 53.6 °F - 51.8 °F 94% 29.96 in 10.0 mi WNW 4.6 mph - N/A   Clear
6:15 AM 51.8 °F - 50.0 °F 94% 29.97 in 10.0 mi WNW 3.5 mph - N/A   Clear
7:15 AM 51.8 °F - 51.8 °F 100% 29.98 in 10.0 mi West 6.9 mph - N/A   Clear
7:35 AM 53.6 °F - 51.8 °F 94% 29.98 in 10.0 mi West 9.2 mph - N/A   Clear
7:55 AM 55.4 °F - 51.8 °F 88% 29.98 in 10.0 mi West 6.9 mph - N/A   Clear
8:15 AM 55.4 °F - 51.8 °F 88% 29.98 in 10.0 mi West 6.9 mph - N/A   Clear
8:35 AM 57.2 °F - 53.6 °F 88% 29.99 in 10.0 mi WNW 5.8 mph - N/A   Clear
8:55 AM 59.0 °F - 53.6 °F 82% 29.99 in 10.0 mi Calm Calm - N/A   Clear
9:15 AM 60.8 °F - 53.6 °F 77% 29.99 in 10.0 mi Calm Calm - N/A   Clear
9:35 AM 62.6 °F - 53.6 °F 72% 29.99 in 10.0 mi Calm Calm - N/A   Clear
9:55 AM 64.4 °F - 53.6 °F 68% 29.99 in 10.0 mi Calm Calm - N/A   Clear
10:15 AM 66.2 °F - 53.6 °F 64% 29.99 in 10.0 mi East 3.5 mph - N/A   Clear
10:35 AM 68.0 °F - 53.6 °F 60% 29.99 in 10.0 mi East 4.6 mph - N/A   Clear
10:55 AM 71.6 °F - 53.6 °F 53% 29.99 in 10.0 mi ENE 6.9 mph - N/A   Clear
11:15 AM 71.6 °F - 53.6 °F 53% 29.98 in 10.0 mi NNE 4.6 mph - N/A   Clear
11:35 AM 73.4 °F - 53.6 °F 50% 29.98 in 10.0 mi Calm Calm - N/A   Clear
11:55 AM 75.2 °F - 53.6 °F 47% 29.97 in 10.0 mi Calm Calm - N/A   Clear
12:15 PM 73.4 °F - 53.6 °F 50% 29.97 in 10.0 mi Calm Calm - N/A   Clear
12:35 PM 77.0 °F - 53.6 °F 44% 29.97 in 10.0 mi NE 3.5 mph - N/A   Clear
12:55 PM 78.8 °F - 53.6 °F 42% 29.96 in 10.0 mi Calm Calm - N/A   Clear
1:15 PM 80.6 °F 80.3 °F 53.6 °F 39% 29.96 in 8.0 mi North 5.8 mph - N/A   Clear
1:35 PM 80.6 °F - 51.8 °F 37% 29.96 in 9.0 mi North 3.5 mph - N/A   Clear
1:55 PM 82.4 °F 81.4 °F 53.6 °F 37% 29.95 in 10.0 mi NNW 5.8 mph - N/A   Clear
2:15 PM 84.2 °F 82.8 °F 53.6 °F 35% 29.95 in 8.0 mi NE 4.6 mph - N/A   Clear
2:35 PM 84.2 °F 82.8 °F 53.6 °F 35% 29.94 in 9.0 mi Calm Calm - N/A   Clear
2:55 PM 87.8 °F 85.7 °F 53.6 °F 31% 29.94 in 10.0 mi NE 5.8 mph - N/A   Clear
3:15 PM 87.8 °F - 51.8 °F 29% 29.94 in 9.0 mi NNW 4.6 mph - N/A   Clear
3:35 PM 87.8 °F 85.7 °F 53.6 °F 31% 29.93 in 8.0 mi NNE 9.2 mph - N/A   Clear
3:55 PM 89.6 °F - 51.8 °F 27% 29.93 in 10.0 mi North 6.9 mph - N/A   Clear
4:15 PM 89.6 °F - 51.8 °F 27% 29.93 in 10.0 mi NNE 10.4 mph - N/A   Clear
4:35 PM 89.6 °F - 51.8 °F 27% 29.93 in 10.0 mi NNE 9.2 mph - N/A   Clear
4:55 PM 89.6 °F - 51.8 °F 27% 29.92 in 10.0 mi NNE 12.7 mph 16.1 mph N/A   Clear
5:15 PM 89.6 °F - 50.0 °F 26% 29.92 in 10.0 mi North 12.7 mph - N/A   Clear
5:35 PM 89.6 °F - 50.0 °F 26% 29.92 in 10.0 mi North 10.4 mph - N/A   Clear
5:55 PM 87.8 °F - 50.0 °F 27% 29.92 in 10.0 mi North 11.5 mph - N/A   Clear
6:15 PM 84.2 °F 83.8 °F 59.0 °F 42% 29.93 in 10.0 mi WNW 10.4 mph - N/A   Clear
6:35 PM 82.4 °F 82.0 °F 57.2 °F 42% 29.93 in 10.0 mi WNW 11.5 mph - N/A   Clear
6:55 PM 78.8 °F - 57.2 °F 47% 29.93 in 10.0 mi West 11.5 mph - N/A   Clear
7:15 PM 77.0 °F - 57.2 °F 50% 29.93 in 10.0 mi West 11.5 mph - N/A   Clear
7:35 PM 73.4 °F - 57.2 °F 57% 29.93 in 10.0 mi West 11.5 mph - N/A   Clear
7:55 PM 71.6 °F - 57.2 °F 60% 29.94 in 10.0 mi West 11.5 mph - N/A   Clear
8:15 PM 71.6 °F - 57.2 °F 60% 29.95 in 10.0 mi West 13.8 mph - N/A   Clear
8:35 PM 69.8 °F - 57.2 °F 64% 29.95 in 10.0 mi West 13.8 mph - N/A   Clear
8:55 PM 68.0 °F - 57.2 °F 68% 29.95 in 10.0 mi West 12.7 mph - N/A   Clear
9:15 PM 66.2 °F - 57.2 °F 73% 29.96 in 10.0 mi West 10.4 mph - N/A   Clear
9:35 PM 66.2 °F - 55.4 °F 68% 29.96 in 10.0 mi West 12.7 mph - N/A   Clear
9:55 PM 66.2 °F - 55.4 °F 68% 29.97 in 10.0 mi West 12.7 mph - N/A   Clear
10:15 PM 64.4 °F - 55.4 °F 73% 29.97 in 10.0 mi West 11.5 mph - N/A   Clear
10:35 PM 64.4 °F - 55.4 °F 73% 29.97 in 10.0 mi West 12.7 mph - N/A   Clear
10:55 PM 64.4 °F - 55.4 °F 73% 29.97 in 10.0 mi West 12.7 mph - N/A   Clear
11:15 PM 62.6 °F - 55.4 °F 77% 29.98 in 10.0 mi West 10.4 mph - N/A   Clear
11:35 PM 62.6 °F - 55.4 °F 77% 29.98 in 10.0 mi West 9.2 mph - N/A   Clear
11:55 PM 62.6 °F - 55.4 °F 77% 29.99 in 10.0 mi SW 4.6 mph - N/A   Clear